カタログに戻る

QIANFAN-226

運用中通信PO
NORAD 69855·PAYLOAD·🇨🇳 China

打ち上げ Jul 5, 2026 から Wenchang Space Launch Site

Loading…

次のパス (今後24時間)

TLE

最新Source: Space-Track

元期: Sep 14, 2026, 21:42 UTC

1 69855U 26155H   26257.90463247 -.01770670  00000-0 -27988+1 0  9993
2 69855  89.0073  54.2940 0032674  29.1276 331.1690 13.53723218  9967

AllMySatでQIANFAN-226をリアルタイム追跡

Download on the App Store